[[{"header":{"parameterUnit":"m.s-1","parameterCategory":1,"la1":30.2991,"la2":30.254,"lo1":-89.0895,"lo2":-89.0444,"dy":0.0017,"dx":0.0017,"nx":28,"ny":28,"refTime":"2025-03-03T09:00:00:Z","depth":0,"parameterNumber":2,"parameterNumberName":"U-component_of_WINDS"},"data":[0,0,0,0,0,0,0,0,0,0,0,0,0,0,0,0,0,0,0,0,0,0,0,0,0,0,0,0,0,0,0,0,0,0,0,0,0,0,0,0,0,0,0,0,0,0,0,0,0,0,0,0,0,0,0,0,0,0,-4.5067,-4.5068,0,-4.5196,-4.5198,-4.5199,-4.522,-4.5219,-4.5218,-4.5217,-4.5353,-4.5358,-4.5362,0,0,0,0,0,0,0,0,0,0,0,0,0,-4.4841,-4.4845,-4.5067,-4.5068,-4.507,-4.5196,-4.5198,-4.52,-4.522,-4.5219,-4.5218,-4.5216,-4.5352,-4.5357,-4.5363,0,0,0,0,0,0,0,0,0,0,0,0,0,-4.4952,-4.4847,-4.5066,-4.5095,-4.5099,-4.5196,-4.5198,-4.52,-4.5221,-4.5219,-4.5217,-4.5216,-4.535,-4.5357,-4.5363,-4.5441,0,0,-4.5385,-4.5388,0,0,0,0,0,0,0,0,-4.4946,-4.496,-4.5089,-4.5094,-4.5098,-4.519,-4.5168,-4.5281,-4.5221,-4.5175,-4.5217,-4.5215,-4.5301,-4.5311,-4.534,-4.5448,-4.5454,-4.5386,-4.539,-4.5393,-4.5395,0,0,0,0,0,0,0,-4.4938,-4.4955,-4.5118,-4.5091,-4.5097,-4.5103,-4.5117,-4.519,-4.5246,-4.5179,-4.518,-4.5195,-4.5303,-4.5333,-4.5343,-4.5456,-4.5385,-4.5392,-4.5396,-4.5399,-4.5635,-4.5637,0,0,0,0,0,0,-4.4925,-4.4948,-4.5114,-4.5122,-4.5016,-4.5109,-4.5124,-4.5162,-4.5245,-4.5256,-4.5197,-4.5196,-4.5322,-4.5335,-4.5348,-4.5445,-4.5393,-4.5399,-4.5404,-4.5633,-4.5636,-4.5638,0,0,0,0,0,0,-4.492,-4.4939,-4.5109,-4.5036,-4.5058,-4.5114,-4.5157,-4.5166,-4.5196,-4.5259,-4.5269,-4.5217,-4.5321,-4.5338,-4.5418,-4.545,-4.5403,-4.5409,-4.5631,-4.5634,-4.5637,-4.5639,0,0,0,0,0,0,-4.4913,-4.4937,-4.4966,-4.5036,-4.5062,-4.5175,-4.5159,-4.517,-4.5208,-4.5208,-4.528,-4.5291,-4.5321,-4.5407,-4.5425,-4.5459,-4.5415,-4.5628,-4.5632,-4.5636,-4.5636,-4.5641,-4.5646,0,0,0,0,0,-4.4905,-4.4962,-4.4968,-4.4987,-4.5099,-4.5177,-4.5192,-4.5224,-4.521,-4.5241,-4.5281,-4.5289,-4.5444,-4.5415,-4.5435,-4.5472,-4.5626,-4.5631,-4.5635,-4.5634,-4.564,-4.5646,0,0,0,0,0,0,-4.4896,-4.4972,-4.4979,-4.506,-4.5112,-4.518,-4.5219,-4.523,-4.5287,-4.5285,-4.5324,-4.534,-4.5418,-4.5453,-4.542,-4.5552,-4.5534,-4.5543,-4.5526,-4.5533,-4.5537,-4.5527,-4.542,0,0,0,0,0,-4.4903,-4.4959,-4.5023,-4.5089,-4.5114,-4.5162,-4.5198,-4.5218,-4.5274,-4.5296,-4.5342,-4.5397,-4.5458,-4.5497,-4.5557,-4.5642,-4.5658,-4.5677,-4.5681,-4.5685,-4.5692,-4.574,-4.5749,-4.5653,-4.5653,-4.5653,0,0,-4.4919,-4.4968,-4.5001,-4.5088,-4.5131,-4.5189,-4.5181,-4.5242,-4.5286,-4.5306,-4.5383,-4.5419,-4.5483,-4.5566,-4.5605,-4.5597,-4.5723,-4.5691,-4.5694,-4.5699,-4.5746,-4.5755,-4.5763,-4.5656,-4.5656,-4.5655,0,0,-4.4978,-4.502,-4.5079,-4.5122,-4.5186,-4.5217,-4.5232,-4.5299,-4.5323,-4.5402,-4.5418,-4.5472,-4.5576,-4.5621,-4.5657,-4.5734,-4.5743,-4.5753,-4.5778,-4.5825,-4.5832,-4.5839,-4.5866,-4.5876,-4.5759,-4.5759,-4.5759,0,-4.499,-4.5076,-4.5109,-4.517,-4.5208,-4.5228,-4.5289,-4.5329,-4.541,-4.5437,-4.5427,-4.5559,-4.5603,-4.5697,-4.5715,-4.5744,-4.5763,-4.5744,-4.5828,-4.5836,-4.5842,-4.5869,-4.5879,-4.576,-4.576,-4.576,-4.576,0,-4.5088,-4.5148,-4.5189,-4.5265,-4.5308,-4.5369,-4.5412,-4.5452,-4.5469,-4.5502,-4.5583,-4.5637,-4.5708,-4.5732,-4.575,-4.5828,-4.5822,-4.582,-4.5803,-4.5852,-4.5877,-4.5888,-4.5761,-4.5761,-4.5761,-4.576,0,0,-4.5144,-4.5237,-4.5251,-4.5286,-4.5358,-4.5406,-4.5469,-4.5537,-4.5571,-4.5627,-4.5681,-4.5769,-4.5768,-4.5809,-4.5832,-4.5873,-4.5931,-4.5867,-4.5869,-4.5876,-4.6021,-4.6022,-4.6033,-4.5938,-4.594,-4.5941,-4.6016,0,-4.5211,-4.532,-4.5352,-4.5445,-4.5501,-4.5521,-4.5576,-4.5627,-4.566,-4.5714,-4.5752,-4.5813,-4.5807,-4.5832,-4.5873,-4.5915,-4.596,-4.591,-4.5989,-4.5991,-4.5971,-4.6046,-4.6047,-4.6114,-4.6026,-4.6028,-4.6029,0,-4.5303,-4.5359,-4.5457,-4.5522,-4.5547,-4.5595,-4.5661,-4.5712,-4.5771,-4.5792,-4.5839,-4.5859,-4.5926,-4.5906,-4.6,-4.5965,-4.6,-4.6025,-4.6029,-4.6037,-4.6012,-4.6056,-4.6137,-4.6147,-4.6045,-4.6044,-4.6043,0,-4.5333,-4.5433,-4.5505,-4.5534,-4.5613,-4.5646,-4.5681,-4.5738,-4.5777,-4.5835,-4.5861,-4.5927,-4.5963,-4.6014,-4.6052,-4.6033,-4.6143,-4.6126,-4.6163,-4.6162,-4.6185,-4.6183,-4.6272,-4.6208,-4.6208,-4.6208,-4.6207,0,-4.5404,-4.5464,-4.552,-4.5564,-4.5632,-4.5668,-4.5734,-4.577,-4.5821,-4.5874,-4.5896,-4.5945,-4.5992,-4.6048,-4.6078,-4.6152,-4.6168,-4.6188,-4.6195,-4.6186,-4.6183,-4.6208,-4.6205,-4.621,-4.621,-4.6209,-4.6209,0,-4.545,-4.5489,-4.5569,-4.5636,-4.5654,-4.5701,-4.576,-4.5804,-4.5838,-4.5905,-4.5922,-4.5977,-4.6044,-4.6086,-4.6172,-4.6193,-4.6273,-4.6279,-4.6253,-4.6256,-4.6291,-4.6287,-4.6399,-4.6416,-4.6341,-4.6341,-4.6342,0,-4.5492,-4.5538,-4.561,-4.5646,-4.568,-4.5738,-4.5778,-4.5816,-4.5857,-4.5928,-4.5964,-4.6032,-4.6089,-4.6196,-4.6244,-4.631,-4.6317,-4.6352,-4.6328,-4.6317,-4.6318,-4.6314,-4.6319,-4.6356,-4.6356,-4.6357,-4.6357,0,-4.5563,-4.558,-4.5636,-4.5699,-4.5746,-4.5797,-4.5849,-4.5878,-4.5926,-4.5971,-4.6039,-4.6083,-4.617,-4.6238,-4.6308,-4.6346,-4.636,-4.6365,-4.6377,-4.6368,-4.635,-4.636,-4.6263,-4.6362,-4.6361,-4.6361,-4.6361,-4.6361,-4.5609,-4.565,-4.5707,-4.5769,-4.5811,-4.5859,-4.5904,-4.5944,-4.6,-4.6073,-4.6093,-4.6164,-4.6224,-4.6319,-4.6358,-4.6416,-4.6411,-4.6429,-4.6434,-4.6437,-4.6438,-4.6341,-4.6429,-4.6429,-4.6429,-4.6429,-4.6429,0,-4.5681,-4.5718,-4.5774,-4.5845,-4.5894,-4.5902,-4.596,-4.6001,-4.6063,-4.6116,-4.6171,-4.6249,-4.6316,-4.6369,-4.6437,-4.6473,-4.6482,-4.649,-4.6487,-4.6496,-4.6438,-4.642,-4.6482,-4.6482,-4.6482,-4.6482,-4.6482,-4.6482,-4.5724,-4.5795,-4.5819,-4.5912,-4.595,-4.6018,-4.6051,-4.6096,-4.6138,-4.6224,-4.6279,-4.6313,-4.6367,-4.6439,-4.6501,-4.6515,-4.6539,-4.6546,-4.6562,-4.6506,-4.65,-4.6494,-4.6478,-4.6551,-4.6551,-4.6615,-4.6616,-4.6616]},{"header":{"parameterUnit":"m.s-1","parameterCategory":1,"la1":30.2991,"la2":30.254,"lo1":-89.0895,"lo2":-89.0444,"dy":0.0017,"dx":0.0017,"nx":28,"ny":28,"refTime":"2025-03-03T09:00:00:Z","depth":0,"parameterNumber":3,"parameterNumberName":"V-component_of_WINDS"},"data":[0,0,0,0,0,0,0,0,0,0,0,0,0,0,0,0,0,0,0,0,0,0,0,0,0,0,0,0,0,0,0,0,0,0,0,0,0,0,0,0,0,0,0,0,0,0,0,0,0,0,0,0,0,0,0,0,0,0,5.8099,5.8101,0,5.8246,5.8248,5.8249,5.8236,5.8234,5.8232,5.823,5.8375,5.8381,5.8387,0,0,0,0,0,0,0,0,0,0,0,0,0,5.7804,5.7809,5.8099,5.8101,5.8103,5.8246,5.8248,5.825,5.8237,5.8234,5.8231,5.8229,5.8373,5.838,5.8387,0,0,0,0,0,0,0,0,0,0,0,0,0,5.7939,5.7811,5.8099,5.8114,5.8116,5.8245,5.8248,5.825,5.8237,5.8234,5.8231,5.8227,5.8371,5.8379,5.8388,5.851,0,0,5.8415,5.8419,0,0,0,0,0,0,0,0,5.7931,5.795,5.811,5.8113,5.8116,5.822,5.8197,5.8337,5.8238,5.8191,5.823,5.8226,5.8326,5.8338,5.8373,5.8517,5.8523,5.8416,5.8422,5.8426,5.8428,0,0,0,0,0,0,0,5.7922,5.7944,5.8157,5.8112,5.8116,5.8112,5.8127,5.8223,5.8275,5.8195,5.8195,5.8212,5.8327,5.8364,5.8376,5.8525,5.8416,5.8424,5.8429,5.8433,5.8778,5.8782,0,0,0,0,0,0,5.791,5.7936,5.8152,5.8161,5.8014,5.812,5.8137,5.819,5.8274,5.8284,5.8215,5.8211,5.8351,5.8366,5.8381,5.8531,5.8425,5.8434,5.8439,5.8775,5.8779,5.8783,0,0,0,0,0,0,5.7904,5.7929,5.8146,5.8049,5.8076,5.8128,5.8187,5.8194,5.8232,5.8289,5.8298,5.8244,5.8349,5.8369,5.8479,5.8536,5.8438,5.8446,5.877,5.8776,5.8781,5.8831,0,0,0,0,0,0,5.7895,5.7927,5.7975,5.805,5.8081,5.8243,5.8191,5.82,5.8248,5.8244,5.8319,5.8328,5.8348,5.8466,5.8488,5.8546,5.8453,5.8765,5.8773,5.8779,5.8824,5.8838,5.8849,0,0,0,0,0,5.7885,5.7982,5.7977,5.8004,5.8142,5.8247,5.8264,5.8286,5.8252,5.8301,5.8338,5.8326,5.8526,5.8477,5.8502,5.8564,5.8762,5.8771,5.8779,5.8819,5.8835,5.8849,0,0,0,0,0,0,5.791,5.7992,5.7988,5.8112,5.8173,5.8244,5.8306,5.8302,5.8372,5.8366,5.8388,5.8405,5.8517,5.8551,5.8495,5.8687,5.8639,5.8653,5.8661,5.8677,5.8689,5.8679,5.846,0,0,0,0,0,5.7931,5.801,5.8076,5.8179,5.821,5.8253,5.8299,5.8311,5.8373,5.8398,5.8443,5.8504,5.858,5.863,5.8703,5.8829,5.8845,5.8884,5.8896,5.8906,5.8918,5.8988,5.9006,5.8812,5.8811,5.8811,0,0,5.7973,5.8027,5.8076,5.8186,5.8234,5.8315,5.8274,5.8361,5.8421,5.8411,5.8519,5.8554,5.8622,5.8742,5.8796,5.8773,5.8975,5.8917,5.8924,5.8931,5.8999,5.9017,5.9033,5.8817,5.8816,5.8815,0,0,5.8092,5.8141,5.8234,5.8283,5.8357,5.8385,5.8407,5.848,5.8503,5.8612,5.8607,5.8678,5.8809,5.8858,5.8901,5.904,5.9032,5.9062,5.9127,5.9195,5.921,5.9224,5.9275,5.9293,5.9074,5.9074,5.9074,0,5.8135,5.8258,5.8281,5.837,5.8418,5.8415,5.8508,5.8555,5.8648,5.8682,5.8655,5.8821,5.8867,5.8998,5.9032,5.9066,5.9092,5.9055,5.9207,5.9221,5.9234,5.9283,5.9302,5.9078,5.9077,5.9077,5.9077,0,5.8309,5.8394,5.8459,5.8553,5.8608,5.8698,5.8734,5.8787,5.8794,5.8824,5.8936,5.899,5.9076,5.9107,5.9114,5.924,5.9224,5.9202,5.9154,5.9255,5.9302,5.9321,5.9083,5.9081,5.908,5.9079,0,0,5.8449,5.8554,5.8578,5.8621,5.8703,5.8768,5.8858,5.8943,5.899,5.9054,5.913,5.9241,5.9222,5.927,5.9282,5.9342,5.945,5.9313,5.9315,5.9338,5.9594,5.9611,5.9633,5.9445,5.9448,5.9451,5.9589,0,5.8578,5.8739,5.8762,5.8905,5.8984,5.8982,5.906,5.9118,5.9149,5.922,5.9252,5.9332,5.93,5.9329,5.9388,5.9425,5.9502,5.9415,5.9516,5.9519,5.9501,5.9657,5.9675,5.9802,5.9607,5.961,5.9612,0,5.875,5.8822,5.8973,5.9045,5.9079,5.915,5.923,5.9298,5.9363,5.9381,5.9436,5.9441,5.9533,5.9481,5.9608,5.9548,5.959,5.9615,5.962,5.9632,5.9573,5.9674,5.9843,5.9863,5.964,5.9638,5.9636,0,5.8839,5.8973,5.9082,5.9118,5.9204,5.9254,5.9292,5.9355,5.9405,5.9474,5.9507,5.9586,5.9629,5.9689,5.9715,5.9674,5.9841,5.9791,5.9859,5.9859,5.9896,5.9893,6.0076,5.992,5.992,5.9919,5.9919,0,5.8982,5.9075,5.9123,5.919,5.9294,5.9318,5.942,5.9456,5.9512,5.9585,5.9586,5.9654,5.9683,5.9755,5.9775,5.9879,5.9898,5.9915,5.9919,5.9916,5.9914,5.9945,5.9938,5.9924,5.9923,5.9922,5.9921,0,5.91,5.9136,5.9255,5.9327,5.9348,5.9421,5.9483,5.9547,5.9577,5.9669,5.9692,5.9739,5.9824,5.9855,5.9958,5.9972,6.0092,6.0088,6.0071,6.0073,6.014,6.0134,6.0351,6.0381,6.0203,6.0205,6.0206,0,5.919,5.9262,5.9343,5.9393,5.9434,5.9514,5.9565,5.9592,5.9646,5.9726,5.9781,5.9866,5.9936,6.0072,6.0115,6.0194,6.0193,6.0263,6.0205,6.02,6.0196,6.0193,6.02,6.0275,6.0276,6.0278,6.0279,0,5.9346,5.9361,5.9437,5.9519,5.9581,5.9647,5.971,5.9751,5.9786,5.9846,5.9935,5.999,6.0096,6.0181,6.0262,6.03,6.0296,6.0297,6.0317,6.0316,6.0304,6.0313,6.0103,6.0292,6.0291,6.029,6.0289,6.0289,5.9455,5.9519,5.9587,5.9671,5.9722,5.9782,5.9846,5.9885,5.996,6.005,6.006,6.0156,6.0219,6.0329,6.037,6.0444,6.0425,6.0454,6.0461,6.0469,6.0475,6.029,6.0458,6.0458,6.0458,6.0457,6.0457,0,5.9613,5.9656,5.9734,5.9824,5.989,5.9882,5.9952,6.0008,6.0092,6.0153,6.0222,6.0324,6.0406,6.0455,6.0538,6.0588,6.0588,6.0609,6.0606,6.0615,6.0486,6.0461,6.0607,6.0607,6.0607,6.0607,6.0607,6.0607,5.9703,5.9812,5.9835,5.9969,6.0011,6.0107,6.0147,6.0202,6.0251,6.0366,6.0435,6.0467,6.0523,6.0609,6.0684,6.0696,6.0727,6.075,6.0761,6.064,6.0624,6.061,6.0586,6.0756,6.0757,6.0884,6.0885,6.0886]}]]